WGS F7 (USA 263)

Last updated on Thu Sep 24 2026 00:03:18 GMT+0000 (Coordinated Universal Time)

1 40746U 15036A 26266.48351406 .00000017 00000+0 00000+0 0 9995 2 40746 0.0177 166.9751 0000344 300.8404 243.6195 1.00272850 40855
UTC large
Height (km)
Speed (km/s)
/
Latitude / Longitude
Inclination (degrees)
Orbital Period (minutes)
Azimuth
Elevation
Range (km)
Doppler Factor

Next 0 passes for location: London (51.5072 / 0.1276)

No passes found over London.
WGS F7 (USA 263)